Jonesville, VA

1:14 AM EST on February 23, 2017 (GMT -0500)
Jonesville

Weather History for K0VG - March, 2014

Change the Weather History Date:

Wednesday, March 5, 2014

  Actual Average (KLNP) Record (KLNP)
Temperature  
Mean Temperature 40 °F -  
Max Temperature 55 °F 46 °F 66 °F (2004)
Min Temperature 24 °F 29 °F 14 °F (2015)
Degree Days  
Heating Degree Days 26    
Moisture  
Dew Point 2 °F    
Average Humidity 66    
Maximum Humidity 100    
Minimum Humidity 4    
Precipitation  
Precipitation 0.00 in - - ()
Sea Level Pressure  
Sea Level Pressure 30.18 in    
Wind  
Wind Speed 0 mph (NNE)    
Max Wind Speed 8 mph    
Max Gust Speed -    
Visibility 9 miles    
Events Fog    
Averages and records for this station are not official NWS values.
T = Trace of Precipitation, MM = Missing Value Source: NWS Daily Summary

Daily Weather History Graph

Daily Weather History Graph

Search for Another Location

Airport or City:

Trip Planner

Search our weather history database for the weather conditions in past years. The results will help you decide how hot, cold, wet, or windy it might be!

Date:

Astronomy

Mar. 05, 2014 Rise Set
Actual Time 6:58 AM EST 6:31 PM EST
Civil Twilight 6:32 AM EST 6:57 PM EST
Nautical Twilight 6:02 AM EST 7:26 PM EST
Astronomical Twilight 5:32 AM EST 7:56 PM EST
Moon 9:30 AM EST (3/5) 11:30 PM EST (3/5)
Length of Visible Light 12h 24m
Length of Day
11h 33m
Waxing Crescent, 23% of the Moon is Illuminated
Mar 5
Waxing Crescent
Mar 8
First Quarter
Mar 16
Full
Mar 23
Last Quarter
Mar 30
New

Hourly Weather History & Observations

Time (EST) Temp. Windchill Dew Point Humidity Pressure Visibility Wind Dir Wind Speed Gust Speed Precip Events Conditions
12:00 AM - - - N/A% 30.17 in 7.0 mi Calm Calm - N/A   Unknown
12:02 AM - - - N/A% 30.17 in 7.0 mi Calm Calm - N/A   Unknown
12:03 AM - - - N/A% 30.17 in 7.0 mi Calm Calm - N/A   Unknown
12:38 AM - - - N/A% - 7.0 mi North - - N/A   Clear
12:55 AM 30.2 °F - 30.2 °F 100% 30.17 in - Calm Calm - N/A   Unknown
1:21 AM - - - N/A% - 6.0 mi Calm Calm - N/A   Mist
1:23 AM - - - N/A% - 6.0 mi Calm Calm - N/A   Mist
1:24 AM - - - N/A% - 6.0 mi Calm Calm - N/A   Mist
1:30 AM 28.4 °F - 28.4 °F 100% 30.18 in 7.0 mi Calm Calm - N/A   Clear
1:55 AM 28.4 °F - 28.4 °F 100% - 7.0 mi Calm Calm - N/A   Clear
2:35 AM 28.4 °F - 28.4 °F 100% 30.18 in - Calm Calm - N/A   Mist
3:00 AM 28.4 °F - 28.4 °F 100% - 7.0 mi Calm Calm - N/A   Clear
3:15 AM - - - N/A% 30.17 in - Calm Calm - N/A   Clear
3:55 AM - - - N/A% - 7.0 mi North - - N/A   Partly Cloudy
4:21 AM - - - N/A% - - Calm Calm - N/A   Unknown
4:22 AM - - - N/A% - - Calm Calm - N/A   Unknown
4:35 AM - - - N/A% 30.16 in 7.0 mi Calm Calm - N/A   Unknown
4:55 AM - - - N/A% - 9.0 mi North - - N/A   Clear
5:22 AM 24.8 °F - 24.8 °F 100% 30.17 in 7.0 mi Calm Calm - N/A   Unknown
5:23 AM 24.8 °F - 24.8 °F 100% 30.17 in 7.0 mi Calm Calm - N/A   Unknown
5:24 AM 24.8 °F - 24.8 °F 100% 30.17 in 7.0 mi Calm Calm - N/A   Unknown
7:10 AM - - - N/A% - - North - - N/A Fog Light Freezing Fog
7:35 AM - - - N/A% - 0.5 mi Calm Calm - N/A Fog Light Freezing Fog
7:55 AM 24.8 °F - 24.8 °F 100% 30.20 in 5.0 mi Calm Calm - N/A   Mist
8:40 AM 26.6 °F - 26.6 °F 100% 30.21 in 1.2 mi Calm Calm - N/A   Overcast
8:50 AM - - - N/A% - 4.0 mi Calm Calm - N/A   Scattered Clouds
9:20 AM - - - N/A% - 7.0 mi Calm Calm - N/A   Unknown
10:00 AM 33.8 °F - 32.0 °F 93% - 10.0 mi Calm Calm - N/A   Clear
10:03 AM 33.8 °F - 32.0 °F 93% - 10.0 mi Calm Calm - N/A   Clear
10:04 AM 33.8 °F - 32.0 °F 93% - 10.0 mi Calm Calm - N/A   Clear
10:22 AM 35.6 °F - 32.0 °F 87% - 10.0 mi Calm Calm - N/A   Clear
10:23 AM 35.6 °F - 32.0 °F 87% - 10.0 mi Calm Calm - N/A   Clear
10:24 AM 35.6 °F - 32.0 °F 87% - 10.0 mi Calm Calm - N/A   Clear
10:55 AM - - - N/A% 30.21 in 10.0 mi Calm Calm - N/A   Unknown
11:22 AM 41.0 °F - 32.0 °F 70% 30.20 in 10.0 mi Calm Calm - N/A   Clear
11:23 AM 41.0 °F - 32.0 °F 70% 30.20 in 10.0 mi Calm Calm - N/A   Clear
11:24 AM 41.0 °F - 32.0 °F 70% 30.20 in 10.0 mi Calm Calm - N/A   Clear
11:55 AM - - - N/A% - 10.0 mi North - - N/A   Unknown
12:15 PM - - - N/A% - 10.0 mi North - - N/A   Unknown
12:55 PM - - - N/A% - 18.0 mi North - - N/A   Unknown
1:15 PM - - - N/A% - 10.0 mi North - - N/A   Clear
1:30 PM 50.0 °F - -121.0 °F 4% 30.13 in - Calm Calm - N/A   Clear
1:55 PM 53.6 °F - 23.0 °F 30% 30.13 in - WNW 4.6 mph - N/A   Clear
2:23 PM 53.6 °F - 23.0 °F 30% 30.13 in 10.0 mi Calm Calm - N/A   Clear
2:24 PM 53.6 °F - 23.0 °F 30% 30.13 in 10.0 mi Calm Calm - N/A   Clear
2:35 PM - - - N/A% - 10.0 mi North - - N/A   Unknown
2:55 PM - - - N/A% - 10.0 mi North - - N/A   Unknown
3:10 PM - - - N/A% - 10.0 mi North - - N/A   Unknown
3:35 PM - - - N/A% - 10.0 mi North - - N/A   Unknown
3:58 PM - - - N/A% - 10.0 mi North - - N/A   Unknown
4:15 PM - - - N/A% - 18.0 mi NNW 5.8 mph - N/A   Unknown
4:35 PM 55.4 °F - -113.8 °F 4% 30.11 in - NNW 8.1 mph - N/A   Clear
5:55 PM - - - N/A% - 18.0 mi Calm Calm - N/A   Unknown
6:10 PM 48.2 °F - 30.2 °F 50% 30.14 in 10.0 mi Calm Calm - N/A   Clear
6:30 PM 46.4 °F - 28.4 °F 50% 30.15 in - Calm Calm - N/A   Clear
6:55 PM 44.6 °F - 28.4 °F 53% 30.17 in - Calm Calm - N/A   Clear
7:15 PM 42.8 °F - 28.4 °F 57% - 10.0 mi Calm Calm - N/A   Clear
7:40 PM - - - N/A% - 10.0 mi North - - N/A   Clear
7:58 PM - - - N/A% - 18.0 mi NNE 3.5 mph - N/A   Unknown
8:40 PM 35.6 °F - 28.4 °F 75% 30.19 in - Calm Calm - N/A   Clear
8:58 PM - - - N/A% - 10.0 mi North - - N/A   Unknown
9:15 PM 33.8 °F - -113.8 °F 4% 30.19 in 10.0 mi Calm Calm - N/A   Clear
9:58 PM - - - N/A% 30.20 in 10.0 mi North - - N/A   Unknown
10:30 PM 32.0 °F 28.7 °F -115.6 °F 4% 30.20 in 10.0 mi ENE 3.5 mph - N/A   Clear
11:00 PM 30.2 °F 26.7 °F 26.6 °F 86% 30.20 in 10.0 mi NE 3.5 mph - N/A   Clear
11:03 PM 30.2 °F 26.7 °F 26.6 °F 86% 30.20 in 10.0 mi NE 3.5 mph - N/A   Clear
11:04 PM 30.2 °F 26.7 °F 26.6 °F 86% 30.20 in 10.0 mi NE 3.5 mph - N/A   Clear
11:42 PM 32.0 °F - -117.4 °F 4% 30.20 in 10.0 mi Calm Calm - N/A   Clear
11:43 PM 32.0 °F - -117.4 °F 4% 30.20 in 10.0 mi Calm Calm - N/A   Clear
11:44 PM 32.0 °F - -117.4 °F 4% 30.20 in 10.0 mi Calm Calm - N/A   Clear
11:55 PM 30.2 °F 26.7 °F 26.6 °F 86% 30.18 in 10.0 mi NNE 3.5 mph - N/A   Clear